Regional Weather Roundup
Issued by NWS

Home | Current Version | Previous Version | Graphics & Text | Print | Product List | Glossary On
Versions: 1 2 3 4 5 6 7 8 9 10 11 12 13 14 15 16 17 18 19 20 21 22 23 24 25 26 27 28 29 30 31 32 33 34 35 36 37 38 39 40 41 42 43 44 45 46 47 48 49 50
538
ASUS45 KBOU 231207
RWRCO

WEATHER ROUNDUP FOR COLORADO
NATIONAL WEATHER SERVICE DENVER/BOULDER CO
600 AM MDT MON MAY 23 2016

NOTE: "FAIR" INDICATES FEW OR NO CLOUDS BELOW 12000 FEET WITH NO
SIGNIFICANT WEATHER AND/OR OBSTRUCTIONS TO VISIBILITY.

COZ001>005-013-030-031-231300-
...NORTHWEST COLORADO...

CITY           SKY/WX    TMP DP  RH WIND       PRES   REMARKS
CRAIG          FAIR      27  24  89 CALM      30.03S
HAYDEN         FAIR      30  25  80 CALM      30.02S
MEEKER         FAIR      34  28  79 CALM      30.01S
MOUNT WERNER   NOT AVBL
STEAMBOAT SPGS FAIR      30  28  94 CALM      30.03S
WALDEN         FAIR      28  23  80 CALM      30.05S
$$

COZ006>008-011-231300-
...WEST CENTRAL VALLEYS...

CITY           SKY/WX    TMP DP  RH WIND       PRES   REMARKS
GRAND JUNCTION FAIR      41  24  51 CALM      29.92S
MONTROSE       FAIR      38  27  64 SE5       29.98S
EAGLE          MOCLDY    34  27  75 E7        30.05S WCI  28
RIFLE          FAIR      38  28  67 CALM      29.98F
DELTA          FAIR      42  25  50 NE3       29.96S
NUCLA          FAIR      39  27  60 E6        29.98S
$$

COZ017>023-064>068-231300-
...SOUTHWEST COLORADO...

CITY           SKY/WX    TMP DP  RH WIND       PRES   REMARKS
DURANGO        FAIR      34  25  69 CALM      30.01R
CORTEZ         FAIR      34  27  75 NE3       29.96R
PAGOSA SPRINGS FAIR      37  26  64 CALM      30.05S
TELLURIDE      FAIR      39  22  51 SE6       30.07S
WOLF CREEK PAS FAIR      27  18  69 SW22G30   30.19S WCI  12
$$

COZ009-010-012-014-032>034-037-058>063-231300-
...CENTRAL COLORADO...

CITY           SKY/WX    TMP DP  RH WIND       PRES   REMARKS
ASPEN          FAIR      32  24  72 SW6       30.02S WCI  26
BUENA VISTA    FAIR      32  23  70 W7        30.03S WCI  26
COPPER MTN     NOT AVBL
BERTHOUD PASS  FAIR      27  18  69 SW12      30.16R WCI  16
COTTONWOOD PAS FAIR      43  18  36 CALM      30.08F
GUNNISON       FAIR      30  23  74 CALM      30.06F
KREMMLING      FAIR      32  28  86 CALM      30.06S
LEADVILLE      FAIR      26  20  77 CALM      30.07F
MONARCH PASS   FAIR      30  18  59 SW21      30.26S WCI  17
SALIDA         FAIR      39  25  56 CALM      30.09S
SUNLIGHT       FAIR      32  19  59 CALM      30.14S
WILKERSON PASS FAIR      32  19  59 S5        30.16S WCI  27
$$

COZ069>075-231300-
...SAN LUIS VALLEY/SANGRE DE CRISTO MOUNTAINS...

CITY           SKY/WX    TMP DP  RH WIND       PRES   REMARKS
ALAMOSA        FAIR      42  24  49 S10       30.02S
LA VETA PASS   FAIR      36  21  55 S3        30.14S
SAGUACHE       FAIR      39  23  52 N10       30.04S
$$

COZ035-036-038>040-231300-
...NORTHERN COLORADO FRONT RANGE...

CITY           SKY/WX    TMP DP  RH WIND       PRES   REMARKS
DENVER INTL AP FAIR      42  35  76 S13       29.95R
DMNS CITY PARK   N/A     48  37  64 SE9       29.94S
AURORA         PTCLDY    42  36  79 S12       29.96R
FRONT RANGE AP NOT AVBL
ERIE MUNI ARPT FAIR      45  40  84 SE6       29.94R
BOULDER MUN AP FAIR      45  41  87 CALM      29.94R
CENTENNIAL     FAIR      45  33  63 S10       29.96R
BROOMFIELD     FAIR      46  39  76 S3        29.95R
FORT COLLINS   FAIR      46  37  71 S3        29.95R
LONGMONT       FAIR      43  40  87 CALM      29.96R
$$

COZ041-046-047-076>085-087-088-231300-
...PIKES PEAK/PALMER DIVIDE AND SOUTHERN FOOTHILLS...

CITY           SKY/WX    TMP DP  RH WIND       PRES   REMARKS
COLO. SPRINGS  FAIR      46  30  53 N12       29.99R
A. F. ACADEMY  FAIR      39  32  75 VRB6      29.98R
SCHRIEVER AFB  NOT AVBL
ELLICOTT       FAIR     N/A N/A N/A E15G26    29.95R
FALCON         FAIR      41  28  61 N8        30.01R
FORT CARSON    FAIR      46  37  71 W5        29.96R
LIMON          FAIR      46  32  58 NE9       29.94R
MONUMENT HILL  FAIR      36  30  80 SE8       30.01R
TRINIDAD       FAIR      43  37  79 SW3       29.97R
$$

COZ042>045-048>051-090-091-231300-
...NORTHEAST COLORADO...

CITY           SKY/WX    TMP DP  RH WIND       PRES   REMARKS
GREELEY ARPT   FAIR      41  37  87 CALM      29.95R
AKRON          MOCLDY    48  35  60 NE6       29.93R
BURLINGTON     FAIR      50  42  74 N8        29.90R
WRAY           FAIR      46  43  87 NW8       29.91R
STERLING       CLOUDY    52  36  54 N3        29.91R
HOLYOKE        FAIR      54  45  71 NW3       29.91R
FORT MORGAN    FAIR      46  35  64 CALM      29.94R
$$

COZ086-089-092>099-231300-
...SOUTHEAST COLORADO...

CITY           SKY/WX    TMP DP  RH WIND       PRES   REMARKS
PUEBLO         FAIR      48  37  65 N10       29.94R
LA JUNTA       FAIR      55  34  45 NE8       29.89R
LAMAR          FAIR      54  52  93 N8        29.82R
SPRINGFIELD      N/A     49  46  90 NW12      29.85R
$$




USA.gov is the U.S. government's official web portal to all federal, state and local government web resources and services.